Location: Oshawa
(43.9000°N, 78.8670°W)
Time: 16:44:43
(UTC-04:00)

Altair - Visible Passes

Search period start: 24 April 2018 00:00
Search period end: 04 May 2018 00:00
Orbit: 1502 x 1682 km, 47.2° (Epoch: 23 April)

Date Brightness Start Highest point End Pass type
(mag) Time Alt. Az. Time Alt. Az. Time Alt. Az.
24 Apr 8.9 00:46:14 10° W 00:50:14 18° WSW 00:50:14 18° WSW visible
24 Apr 7.5 22:14:39 10° WNW 22:23:50 64° SSW 22:28:21 33° SE visible
25 Apr 8.7 00:20:44 10° W 00:26:21 21° WSW 00:26:21 21° WSW visible
25 Apr 7.5 21:49:27 10° WNW 21:58:44 68° SSW 22:04:29 26° SE visible
25 Apr 8.6 23:55:19 10° W 00:02:07 24° SW 00:02:30 23° SW visible
26 Apr 7.5 21:24:15 10° WNW 21:33:37 72° SSW 21:40:40 19° SE visible
26 Apr 8.5 23:29:56 10° W 23:37:06 26° SW 23:38:41 25° SW visible
27 Apr 7.6 20:59:03 10° WNW 21:08:29 75° SSW 21:16:52 13° SE visible
27 Apr 8.4 23:04:35 10° WNW 23:12:05 28° SW 23:14:53 24° SSW visible
28 Apr 7.6 20:33:52 10° WNW 20:43:20 79° SSW 20:52:32 10° ESE visible
28 Apr 8.4 22:39:16 10° WNW 22:47:03 31° SW 22:51:08 22° S visible
29 Apr 8.4 22:13:58 10° WNW 22:22:01 34° SW 22:27:25 19° S visible
30 Apr 8.3 21:48:41 10° WNW 21:56:59 37° SW 22:03:45 15° SSE visible
01 May 8.3 21:23:25 10° WNW 21:31:55 40° SW 21:40:07 10° SSE visible
02 May 8.3 20:58:10 10° WNW 21:06:52 43° SW 21:15:20 10° SSE visible
03 May 9.3 22:41:40 10° WSW 22:44:32 12° WSW 22:47:25 10° SW visible
